National Weather Service United States Department of Commerce

Latest Hourly Weather Roundup

TOPSWRTT 000
TTAA00 KICT 182203

Wichita AWIPS Roundup
National Weather Service Wichita KS
500 PM CDT THU JUL 18 2019

....Central Kansas....
  
CITY           SKY/WX    TMP DP  RH WIND       PRES   REMARKS
RUSSELL        SUNNY    104  66  29 S18G31    29.72S HX 109           
SALINA         SUNNY    103  67  31 S23G33    29.71F HX 108           
GREAT BEND     SUNNY     99  71  40 S18       29.74F HX 107           
ELLSWORTH      SUNNY     99  64  32 S18G24    29.72S HX 101           
LYONS          FAIR     101  69  34 SW21G30   29.75S HX 107           
MCPHERSON      SUNNY    100  70  37 S21G26    29.74F HX 107           
HAYS           SUNNY    100  71  39 S18G24    29.72F HX 108           

....South Central Kansas....
  
CITY           SKY/WX    TMP DP  RH WIND       PRES   REMARKS
HUTCHINSON     SUNNY    100  69  36 S25G33    29.74F HX 106           
NEWTON         SUNNY     99  70  38 S29G37    29.76F HX 106           
KINGMAN        SUNNY    100  68  34 S20G25    29.76F HX 106           
WICHITA (ICT)  MOSUNNY  100  70  37 S24G31    29.76F HX 107           
JABARA ARPT    SUNNY     99  70  38 S22G36    29.77F HX 106           
BEECH ARPT     FAIR      96  70  42 S26G33    29.78S HX 102           
MCCONNELL AFB  SUNNY     99  68  36 S21G31    29.78F HX 104           
BENTON         FAIR      98  69  39 S20G30    29.78F HX 104           
EL DORADO      FAIR      99  68  36 S21G30    29.79S HX 104           
AUGUSTA        FAIR      97  70  41 S18G28    29.79S HX 103           
HARPER         NOT AVBL                                               
WINFIELD       SUNNY     97  71  42 S20G30    29.80F HX 104           
 
....Southeast Kansas....
  
CITY           SKY/WX    TMP DP  RH WIND       PRES   REMARKS
EUREKA         SUNNY     95  72  47 S26       29.80F HX 103           
IOLA           FAIR      93  73  51 S17G24    29.83F HX 102           
CHANUTE        SUNNY     95  75  52 S20G31    29.82F HX 107           
PARSONS        MOSUNNY   94  76  55 S13G22    29.84F HX 106           
COFFEYVILLE    MOSUNNY   96  74  48 S18G26    29.82F HX 107           
INDEPENDENCE   MOSUNNY   95  75  52 S20G28    29.82F HX 106           
FORT SCOTT     SUNNY     95  75  52 S20G26    29.82F HX 107           
PITTSBURG      SUNNY     92  75  57 SW18      29.85S HX 103           

....Western Kansas....
  
CITY           SKY/WX    TMP DP  RH WIND       PRES   REMARKS
GOODLAND       SUNNY    101  51  18 SE8       29.82F HX  98           
HILL CITY      SUNNY    103  64  28 S8        29.73F HX 106           
LIBERAL        SUNNY    100  63  29 S21G26    29.80F HX 102           
GARDEN CITY    SUNNY    100  64  30 S18G32    29.78F HX 102           
DODGE CITY     SUNNY    101  61  26 S21G30    29.78F HX 102           
PRATT          SUNNY    100  65  31 S22G31    29.78S HX 102           
MEDICINE LODGE   N/A    101  68  34 S17G30    29.75F HX 106           

....Northeast Kansas....
  
CITY           SKY/WX    TMP DP  RH WIND       PRES   REMARKS
CONCORDIA      SUNNY    101  70  36 SW17G28   29.70F HX 108           
TOPEKA         SUNNY     97  75  49 S14G25    29.74F HX 109           
MANHATTAN      SUNNY    100  71  39 S16G25    29.71F HX 108           
LAWRENCE       SUNNY     99  74  44 S20G29    29.75F HX 110           
OLATHE         MOSUNNY   93  76  57 S14G24    29.79F HX 105           
EMPORIA        SUNNY     96  74  48 S21G32    29.78S HX 107           

....Oklahoma....
  
CITY           SKY/WX    TMP DP  RH WIND       PRES   REMARKS
GAGE           SUNNY     99  67  35 S24G33    29.81S HX 103           
PONCA CITY     SUNNY     97  71  42 S12G25    29.79F HX 104           
BARTLESVILLE   SUNNY     95  74  50 S15G28    29.83F HX 105           
TULSA          MOSUNNY   96  74  48 S20G28    29.83F HX 107           
OKLAHOMA CITY  MOSUNNY   95  71  45 S22G32    29.85F HX 102           

Note: "fair" indicates few or no clouds below 12,000 feet with no
significant weather and/or obstructions to visibility.